This is the latest recevied weather packets stored in our database for station/object F4ELU-13. If no packets are shown the sender has not sent any weather packets the latest 10 day(s).
| Time | Temp. | Humidity | Pressure | Rain* | Wind** | Luminosity | Snow |
|---|---|---|---|---|---|---|---|
| 1777556163 | 24.44° C | 59% | 1016.6 hPa | 0 mm | - | - | - |
| 1777555623 | 23.33° C | 57% | 1016.5 hPa | 0 mm | - | - | - |
| 1777555083 | 23.89° C | 59% | 1016.6 hPa | 0 mm | - | - | - |
| 1777554543 | 23.33° C | 59% | 1016.4 hPa | 0 mm | - | - | - |
| 1777554003 | 23.89° C | 57% | 1016.4 hPa | 0 mm | - | - | - |
| 1777553643 | 23.89° C | 60% | 1016.5 hPa | 0 mm | - | - | - |
| 1777553103 | 23.33° C | 59% | 1016.5 hPa | 0 mm | - | - | - |
| 1777552563 | 23.89° C | 60% | 1016.4 hPa | 0 mm | - | - | - |
| 1777552023 | 23.33° C | 60% | 1016.4 hPa | 0 mm | - | - | - |
| 1777551483 | 23.33° C | 63% | 1016.5 hPa | 0 mm | - | - | - |
| 1777550943 | 23.33° C | 62% | 1016.5 hPa | 0 mm | - | - | - |
| 1777550403 | 23.33° C | 61% | 1016.5 hPa | 0 mm | - | - | - |
| 1777550043 | 23.33° C | 61% | 1016.6 hPa | 0 mm | - | - | - |
| 1777549503 | 22.78° C | 61% | 1016.6 hPa | 0 mm | - | - | - |
| 1777548963 | 23.33° C | 62% | 1016.6 hPa | 0 mm | - | - | - |
| 1777548423 | 22.78° C | 60% | 1016.6 hPa | 0 mm | - | - | - |
| 1777547883 | 22.78° C | 62% | 1016.6 hPa | 0 mm | - | - | - |
| 1777547343 | 22.22° C | 61% | 1016.8 hPa | 0 mm | - | - | - |
| 1777546803 | 22.22° C | 60% | 1016.9 hPa | 0 mm | - | - | - |
| 1777546443 | 22.22° C | 61% | 1017 hPa | 0 mm | - | - | - |
| 1777545903 | 21.67° C | 62% | 1016.9 hPa | 0 mm | - | - | - |
| 1777545363 | 22.22° C | 60% | 1017 hPa | 0 mm | - | - | - |
| 1777544823 | 21.67° C | 61% | 1016.9 hPa | 0 mm | - | - | - |
| 1777544283 | 20.56° C | 64% | 1017.1 hPa | 0 mm | - | - | - |
| 1777543743 | 20° C | 63% | 1016.9 hPa | 0 mm | - | - | - |
* Rain latest hour (hover to see other rain measurements)
** Current wind speed in m/s (hover to see current wind gust speed)